Terminal Aerodrome Forecast
Issued by NWS

Home | Current Version | Previous Version | Graphics & Text | Print | Product List | Glossary On
Versions: 1 2 3 4 5 6 7 8 9 10 11 12 13 14 15 16 17 18 19
000
FTUS43 KMPX 231611 AAC
TAFAXN
TAF AMD
KAXN 231611Z 2316/2412 12014KT P6SM VCTS SCT015 OVC050CB
      TEMPO 2316/2318 3SM -TSRA BR OVC015CB
     FM231800 14013G20KT P6SM BKN035
     FM232130 17011KT 2SM TSRA SCT020 BKN040CB
     FM232300 23008KT P6SM SCT040 BKN090
     FM240600 28009KT P6SM SKC=

USA.gov is the U.S. government's official web portal to all federal, state and local government web resources and services.